Retour au catalogue

STARLINK-35230

ActifCommunicationsVLEO
NORAD 65681·PAYLOAD·🇺🇸 United States

Lancé Sep 21, 2025 depuis Cape Canaveral Space Force Station

Loading…

Prochains Passages (prochaines 24 heures)

TLE

FraisSource: CelesTrak SupGP

Époque: Sep 14, 2026, 15:25 UTC

1 65681C 25212F   26257.64284722  .00060429  00000+0  17865-2 0  2571
2 65681  53.1567 184.9236 0001169  90.4420  16.5560 15.34341354    11

Suivez STARLINK-35230 en temps réel avec AllMySat

Download on the App Store